DateTimeUTC,F1_A11,F1_S11,BsB_S11,BsG_S11,BsR_S11,BbsB_S11,BbsG_S11,BbsR_S11,BaB_A11,BaG_A11,BaR_A11,Tu_S11,T_S11,Uu_S11,U_S11,P_S11,T1_A11
2021-06-23T02:00:00Z,00040200,20000000,,,,,,,-000.06,0000.58,0000.06,17.9,25.0,02.9,01.9,0675.8,31.1
2021-06-23T02:01:00Z,00040200,20000000,,,,,,,0000.05,-000.08,0000.30,18.0,25.1,02.9,01.9,0675.8,31.1
2021-06-23T02:02:00Z,00040200,20000000,,,,,,,-000.17,-000.44,-000.29,18.0,25.0,02.9,01.9,0675.8,31.1
2021-06-23T02:03:00Z,00040200,60000000,,,,,,,0001.21,0001.60,0000.76,18.0,25.1,02.9,01.9,0675.8,31.1
2021-06-23T02:04:00Z,00040200,40000000,0001.38,0001.30,0000.52,0000.21,0000.03,-000.03,-000.16,-000.30,0000.44,18.2,24.9,03.2,02.1,0676.7,31.1
2021-06-23T02:05:00Z,00040200,00000000,0001.30,0000.97,0000.49,0000.56,0000.08,0000.33,0000.59,0000.32,0000.36,18.2,24.9,03.0,02.0,0676.8,31.1
2021-06-23T02:06:00Z,00040200,00000000,0000.52,0000.84,0000.29,0000.32,0000.31,0000.00,0000.65,0000.75,0000.29,18.2,24.8,03.1,02.1,0676.7,31.1
2021-06-23T02:07:00Z,00040200,00000000,0000.63,0001.13,0000.48,0000.15,0000.18,0000.29,0000.57,-000.04,-000.08,18.1,24.8,03.0,02.0,0676.7,31.1
2021-06-23T02:08:00Z,00040200,00000000,0001.17,0000.55,0000.43,0000.16,0000.32,0000.12,0000.42,0000.80,0000.81,18.1,24.8,03.2,02.1,0676.7,31.1
2021-06-23T02:09:00Z,00040200,00000000,0000.98,0000.83,0000.00,-000.03,0000.27,0000.14,0000.77,0000.97,0000.36,18.1,24.7,03.3,02.2,0676.8,31.0
2021-06-23T02:10:00Z,00040200,00000000,0001.74,0001.30,0000.27,-000.28,0000.07,0000.19,0000.06,0000.10,0000.38,18.0,24.7,03.3,02.2,0676.7,31.0
2021-06-23T02:11:00Z,00040200,00000000,0001.10,0001.07,0000.49,-000.33,0000.29,0000.29,0001.29,0000.63,0000.43,18.0,24.7,03.3,02.2,0676.7,31.0
2021-06-23T02:12:00Z,00040200,00000000,0001.17,0000.69,0000.45,0000.34,0000.25,0000.10,-000.17,0000.27,-000.15,18.0,24.6,03.3,02.2,0676.7,31.0
2021-06-23T02:13:00Z,00040200,00000000,0001.06,0000.96,0000.29,0000.34,-000.03,0000.13,-000.09,0000.20,0000.08,18.0,24.6,03.2,02.1,0676.7,31.0
2021-06-23T02:14:00Z,00040200,00000000,0001.11,0001.18,0000.50,0000.03,0000.38,0000.21,0000.12,0000.15,-000.01,18.0,24.6,03.0,02.0,0676.8,31.0
2021-06-23T02:15:00Z,00040200,00000000,0000.95,0000.86,0000.68,-000.40,0000.08,0000.36,0000.21,-000.29,0000.45,18.1,24.7,02.9,01.9,0676.8,31.1
2021-06-23T02:16:00Z,00040200,00000000,0001.47,0000.79,0000.43,0000.13,0000.15,0000.30,-000.06,0000.04,0000.07,18.2,24.7,02.9,02.0,0676.8,31.1
2021-06-23T02:17:00Z,00040200,00000000,0000.59,0000.89,0000.39,0000.25,-000.00,0000.11,0000.35,0000.06,0000.32,18.2,24.8,02.8,01.9,0676.8,31.1
2021-06-23T02:18:00Z,00040200,00000000,0001.00,0000.71,0000.44,0000.13,0000.15,0000.41,0000.11,0000.34,-000.10,18.2,24.8,02.8,01.9,0676.8,31.1
2021-06-23T02:19:00Z,00040200,00000000,0001.77,0000.65,0000.30,0000.43,0000.19,0000.10,0000.17,0000.13,0000.20,18.2,24.8,02.6,01.7,0676.8,31.1
2021-06-23T02:20:00Z,00040200,00000000,0001.71,0000.57,0000.35,0000.30,0000.10,0000.17,0000.64,0000.27,0000.55,18.2,24.7,02.5,01.7,0676.8,31.1
2021-06-23T02:21:00Z,00040200,00000000,0000.76,0000.75,0000.18,0000.03,0000.14,-000.04,-000.12,0000.16,0000.27,18.1,24.7,02.6,01.8,0676.8,31.1
2021-06-23T02:22:00Z,00040200,00000000,0001.11,0000.84,0000.14,-000.01,0000.14,0000.35,0000.44,0000.46,0000.15,18.1,24.7,02.6,01.7,0676.8,31.0
2021-06-23T02:23:00Z,00040200,00000000,0000.34,0000.64,-000.22,0000.24,-000.11,0000.32,-000.22,0000.10,-000.29,18.0,24.6,02.6,01.7,0676.8,31.0
2021-06-23T02:24:00Z,00040200,00000000,0001.21,0000.59,0000.19,0000.09,0000.26,0000.00,0000.45,0000.14,0000.58,18.0,24.6,02.5,01.7,0676.8,31.0
2021-06-23T02:25:00Z,00040200,00000000,0001.24,0001.09,0000.43,0000.30,0000.02,0000.02,0000.92,0000.90,0000.17,18.0,24.6,02.7,01.8,0676.8,31.0
2021-06-23T02:26:00Z,00040200,00000000,0001.49,0000.74,0000.41,0000.29,0000.24,0000.40,0000.92,0000.69,0000.61,18.0,24.6,02.7,01.8,0676.8,31.0
2021-06-23T02:27:00Z,00040200,00000000,0000.73,0000.53,0000.47,0000.05,0000.01,0000.31,0000.16,0000.24,0000.47,17.9,24.5,02.7,01.8,0676.8,31.0
2021-06-23T02:28:00Z,00040200,00000000,0000.83,0000.53,0000.40,0000.22,0000.35,0000.05,0000.42,0001.00,0000.47,17.9,24.5,02.8,01.9,0676.8,31.0
2021-06-23T02:29:00Z,00040200,00000000,0001.11,0000.93,0000.37,0000.38,0000.18,0000.07,0001.02,0000.46,0000.52,18.0,24.5,02.9,01.9,0676.8,31.0
2021-06-23T02:30:00Z,00040200,00000000,0001.29,0000.80,0000.31,0000.11,0000.00,0000.19,0000.41,0000.53,0000.48,18.1,24.6,02.8,01.9,0676.8,31.1
2021-06-23T02:31:00Z,00040200,00000000,0000.67,0001.08,0000.75,-000.30,-000.07,0000.33,0000.45,0000.27,0000.14,18.2,24.6,02.9,01.9,0676.8,31.1
2021-06-23T02:32:00Z,00040200,00000000,0000.38,0000.62,0000.28,0000.49,0000.01,0000.11,0000.53,0000.26,0000.19,18.3,24.7,02.9,01.9,0676.8,31.1
2021-06-23T02:33:00Z,00040200,00000000,0000.58,0000.68,-000.12,0000.12,0000.03,-000.07,0000.42,0000.57,0000.14,18.3,24.7,02.8,01.9,0676.9,31.1
2021-06-23T02:34:00Z,00040200,00000000,0000.56,0000.68,0000.41,0000.11,0000.02,-000.03,0000.26,0000.50,0000.56,18.4,24.7,02.8,01.9,0676.9,31.1
2021-06-23T02:35:00Z,00040200,00000000,0001.33,0000.73,0000.08,0000.32,0000.12,0000.24,0000.44,0000.16,0000.10,18.4,24.8,02.9,01.9,0676.9,31.1
2021-06-23T02:36:00Z,00040200,00000000,0000.20,0000.56,0000.31,0000.07,0000.25,0000.20,0000.18,0000.15,0000.19,18.3,24.8,02.9,02.0,0676.9,31.1
2021-06-23T02:37:00Z,00040200,00000000,0001.24,0000.57,0000.34,-000.10,0000.37,0000.13,0000.73,0000.20,0000.56,18.3,24.7,02.9,02.0,0676.9,31.1
2021-06-23T02:38:00Z,00040200,00000000,0001.39,0000.97,0000.09,0000.48,0000.23,0000.04,0000.37,0000.94,0000.13,18.2,24.7,02.9,01.9,0676.9,31.1
2021-06-23T02:39:00Z,00040200,00000000,0000.61,0000.95,0000.28,0000.21,0000.05,0000.14,0000.51,-000.01,0000.17,18.2,24.7,03.0,02.0,0676.8,31.0
2021-06-23T02:40:00Z,00040200,00000000,0000.80,0000.52,0000.15,-000.36,0000.45,0000.06,0000.42,0000.75,0000.67,18.1,24.7,02.9,02.0,0676.8,31.0
2021-06-23T02:41:00Z,00040200,00000000,0001.34,0000.66,0000.36,0000.34,0000.14,0000.26,-000.11,0000.20,0000.05,18.1,24.6,03.0,02.0,0676.9,31.0
2021-06-23T02:42:00Z,00040200,00000000,0000.78,0000.62,0000.08,0000.89,0000.19,0000.26,0000.86,0000.15,0000.37,18.0,24.6,03.0,02.0,0676.9,31.0
2021-06-23T02:43:00Z,00040200,00000000,0001.37,0000.95,0000.41,-000.11,0000.22,0000.24,0000.69,0000.63,0000.38,18.1,24.6,03.0,02.0,0676.9,31.0
2021-06-23T02:44:00Z,00040200,00000000,0000.96,0001.10,0000.41,-000.13,0000.13,0000.11,0000.43,0000.50,0000.55,18.1,24.6,03.1,02.1,0676.9,31.0
2021-06-23T02:45:00Z,00040200,00000000,0000.84,0000.74,0000.17,0000.23,0000.15,0000.13,0000.60,0000.54,0000.03,18.2,24.6,03.0,02.0,0676.9,31.1
2021-06-23T02:46:00Z,00040200,00000000,0000.32,0000.35,0000.16,-000.52,0000.16,0000.23,-000.35,0000.18,0000.42,18.3,24.7,03.1,02.1,0676.9,31.1
2021-06-23T02:47:00Z,00040200,00000000,0000.79,0000.51,0000.01,0000.40,-000.04,0000.20,0000.32,0000.05,-000.08,18.3,24.7,03.0,02.0,0676.9,31.1
2021-06-23T02:48:00Z,00040200,00000000,0000.81,0000.67,0000.43,0000.02,0000.40,0000.12,0000.81,0000.20,0000.35,18.3,24.7,03.0,02.0,0676.9,31.1
2021-06-23T02:49:00Z,00040200,00000000,0001.37,0000.79,0000.22,0000.01,-000.01,0000.15,0000.41,0000.75,0000.62,18.3,24.7,02.9,02.0,0676.9,31.1
2021-06-23T02:50:00Z,00040200,00000000,0000.67,0000.78,0000.41,-000.12,0000.44,0000.22,0000.44,0000.54,0000.11,18.2,24.7,03.1,02.1,0676.9,31.1
2021-06-23T02:51:00Z,00040200,00000000,0001.08,0000.80,0000.24,0000.06,0000.08,0000.08,0000.14,0000.22,0000.31,18.2,24.6,03.1,02.1,0676.9,31.0
2021-06-23T02:52:00Z,00040200,00000000,0000.54,0000.65,0000.49,0000.59,0000.14,0000.23,0004.78,0004.18,0002.99,18.1,24.6,03.2,02.2,0676.9,31.0
2021-06-23T02:53:00Z,00040200,00000000,0000.79,0000.55,0000.57,-000.08,0000.22,0000.40,-002.40,-002.00,-001.33,18.1,24.6,04.0,02.7,0676.9,31.0
2021-06-23T02:54:00Z,00040200,00000000,0000.45,0000.42,0000.17,0000.52,0000.04,0000.15,-000.63,-000.39,-000.39,18.1,24.6,03.4,02.3,0676.9,31.0
2021-06-23T02:55:00Z,00040200,00000000,0000.92,0000.40,0000.12,-000.44,0000.16,0000.38,0000.25,0000.23,0000.31,18.0,24.5,03.2,02.2,0677.0,31.0
2021-06-23T02:56:00Z,00040200,00000000,0000.83,0000.67,-000.01,0000.41,0000.37,-000.07,-000.16,-000.29,-000.39,18.0,24.5,03.2,02.1,0676.9,31.0
2021-06-23T02:57:00Z,00040200,40000000,,,,,,,0000.36,-000.05,0000.34,18.0,24.5,03.1,02.1,0676.9,31.0
2021-06-23T02:58:00Z,00040200,60000000,,,,,,,-000.45,-000.04,0000.06,17.7,24.7,03.2,02.1,0676.0,31.0
2021-06-23T02:59:00Z,00040200,20000000,,,,,,,0000.20,0000.42,-000.19,17.7,24.8,02.9,01.9,0676.0,31.0
